This is the latest recevied weather packets stored in our database for station/object YD1OCG-15. If no packets are shown the sender has not sent any weather packets the latest 1 day(s).
| Time | Temp. | Humidity | Pressure | Rain* | Wind** | Luminosity | Snow |
|---|---|---|---|---|---|---|---|
| 1778054843 | 28.89° C | 81% | 1008 hPa | - | 3.58 m/s, 350° | - | - |
| 1778049443 | 28.89° C | 82% | 1008 hPa | - | 4.47 m/s, 346° | - | - |
| 1778047643 | 29.44° C | 79% | 1008 hPa | - | 4.47 m/s, 348° | - | - |
| 1778045843 | 29.44° C | 79% | 1008 hPa | - | 5.36 m/s, 352° | - | - |
| 1778044043 | 29.44° C | 81% | 1009 hPa | - | 4.47 m/s, 344° | - | - |
| 1778042243 | 29.44° C | 76% | 1009 hPa | - | 4.47 m/s, 344° | - | - |
| 1778040443 | 28.89° C | 87% | 1010 hPa | - | 4.02 m/s, 354° | - | - |
| 1778038643 | 29.44° C | 75% | 1010 hPa | - | 4.02 m/s, 354° | - | - |
| 1778036843 | 29.44° C | 89% | 1011 hPa | - | 2.68 m/s, 16° | - | - |
| 1778035043 | 29.44° C | 82% | 1011 hPa | - | 2.68 m/s, 16° | - | - |
| 1778033243 | 29.44° C | 92% | 1012 hPa | - | 2.24 m/s, 43° | - | - |
| 1778031443 | 29.44° C | 83% | 1012 hPa | - | 2.24 m/s, 43° | - | - |
| 1778029643 | 28.89° C | 85% | 1012 hPa | - | 1.79 m/s, 107° | - | - |
| 1778027843 | 28.89° C | 85% | 1012 hPa | - | 1.79 m/s, 107° | - | - |
| 1778026043 | 27.78° C | 92% | 1012 hPa | - | 2.24 m/s, 132° | - | - |
| 1778024244 | 27.78° C | 89% | 1012 hPa | - | 2.24 m/s, 129° | - | - |
| 1778022443 | 26.67° C | 93% | 1011 hPa | - | 2.24 m/s, 138° | - | - |
| 1778020644 | 26.67° C | 92% | 1011 hPa | - | 2.24 m/s, 138° | - | - |
| 1778018843 | 26.11° C | 92% | 1011 hPa | - | 2.68 m/s, 143° | - | - |
| 1778017043 | 26.67° C | 93% | 1011 hPa | - | 2.68 m/s, 143° | - | - |
| 1778015249 | 26.11° C | 92% | 1010 hPa | - | 2.68 m/s, 132° | - | - |
| 1778013444 | 26.11° C | 92% | 1010 hPa | - | 2.68 m/s, 132° | - | - |
| 1778011643 | 25.56° C | 92% | 1010 hPa | - | 2.24 m/s, 125° | - | - |
| 1778009849 | 26.11° C | 92% | 1010 hPa | - | 2.24 m/s, 125° | - | - |
| 1778005074 | 26.11° C | 92% | 1011 hPa | - | 1.34 m/s, 130° | - | - |
* Rain since midnight (hover to see other rain measurements)
** Current wind speed in m/s (hover to see current wind gust speed)